Regional Weather Roundup
Issued by NWS

Home | Current Version | Previous Version | Graphics & Text | Print | Product List | Glossary Off
Versions: 1 2 3 4 5 6 7 8 9 10 11 12 13 14 15 16 17 18 19 20 21 22 23 24 25 26 27 28 29 30 31 32 33 34 35 36 37 38 39 40 41 42 43 44 45 46 47 48 49 50

000
ASUS43 KMKX 241759
RWRWI

WISCONSIN REGIONAL WEATHER ROUNDUP
NATIONAL WEATHER SERVICE MILWAUKEE/SULLIVAN WI
100 PM CDT THU JUL 24 2014

NOTE: "FAIR" INDICATES FEW OR NO CLOUDS BELOW 12,000 FEET WITH NO
SIGNIFICANT WEATHER AND/OR OBSTRUCTIONS TO VISIBILITY.

WIZ001-002-006>008-014>016-023>028-241900-
NORTHWEST WISCONSIN

CITY           SKY/WX    TMP DP  RH WIND       PRES   REMARKS
SUPERIOR ARPT  MOSUNNY   71  59  66 E6        30.09S
ASHLAND        PTSUNNY   74  56  53 VRB5      30.10F
6HR MIN TEMP:  54; 6HR MAX TEMP:  76;

HAYWARD        CLOUDY    75  50  41 SW6       30.11F
6HR MIN TEMP:  58; 6HR MAX TEMP:  75;

SIREN          MOSUNNY   77  51  40 S7        30.10F
RICE LAKE      MOSUNNY   75  49  39 SW6       30.13F
LADYSMITH      PTSUNNY   75  51  43 SW6       30.14F
EAU CLAIRE     PTSUNNY   78  50  37 MISG      30.10F
6HR MIN TEMP:  58; 6HR MAX TEMP:  80;

MENOMONIE      PTCLDY    78  53  40 SE6       30.11F
NEW RICHMOND   MOSUNNY   76  53  44 S8        30.10F
OSCEOLA        MOSUNNY   78  52  40 S10G16    30.12F
$$

WIZ003>005-009-010-017-018-241900-
NORTH CENTRAL WISCONSIN

CITY           SKY/WX    TMP DP  RH WIND       PRES   REMARKS
WOODRUFF       MOSUNNY   77  51  40 CALM      30.14F
RHINELANDER    MOSUNNY   70  48  45 VRB5      30.14F
EAGLE RIVER    MOSUNNY   70  45  40 W3        30.14F
LAND O LAKES   MOSUNNY   72  47  41 W5        30.15S
PHILLIPS       MOSUNNY   72  49  44 CALM      30.13F
TOMAHAWK       MOSUNNY   71  50  48 CALM      30.14F
MEDFORD        SUNNY     71  50  47 CALM      30.14F
MERRILL        PTSUNNY   71  51  47 NW3       30.14F
$$

WIZ029-030-035-036-043>047-241900-
CENTRAL WISCONSIN

CITY           SKY/WX    TMP DP  RH WIND       PRES   REMARKS
WAUSAU         PTSUNNY   74  49  41 NW5       30.12F
6HR MIN TEMP:  56; 6HR MAX TEMP:  74;

MOSINEE        MOSUNNY   72  46  40 W7        30.15F
MARSHFIELD     PTSUNNY   75  50  41 MISG      30.13F
6HR MIN TEMP:  57; 6HR MAX TEMP:  75;

STEVENS POINT  SUNNY     71  47  41 NW6       30.15F
WAUPACA        CLOUDY    75  50  41 S7        30.16F
WAUTOMA        NOT AVBL
WISC RAPIDS    PTSUNNY   77  50  38 VRB7      30.15F
6HR MIN TEMP:  55; 6HR MAX TEMP:  77;

CAMP DOUGLAS   NOT AVBL
$$

WIZ011>013-019>022-031-037>040-048>050-241900-
NORTHEAST WISCONSIN

CITY           SKY/WX    TMP DP  RH WIND       PRES   REMARKS
ANTIGO         CLOUDY    71  52  51 W7        30.16F
STURGEON BAY   MOSUNNY   70  46  43 CALM      30.16F
6HR MIN TEMP:  54; 6HR MAX TEMP:  70;

GREEN BAY      MOSUNNY   74  50  42 VRB5      30.14F
6HR MIN TEMP:  57; 6HR MAX TEMP:  75;

MANITOWOC      NOT AVBL
APPLETON       PTSUNNY   72  50  46 VRB6      30.16F
CLINTONVILLE   PTSUNNY   73  46  38 W5        30.15F
OSHKOSH        MOSUNNY   73  51  46 SE9       30.15F
6HR MIN TEMP:  59; 6HR MAX TEMP:  73;

$$

WIZ032>034-041-042-053>061-241900-
SOUTHWEST WISCONSIN

CITY           SKY/WX    TMP DP  RH WIND       PRES   REMARKS
LA CROSSE      SUNNY     80  52  37 SE7       30.11F HX  80
SPARTA         MOSUNNY   75  48  38 SW3       30.15F
VIROQUA        FAIR      75  51  43 CALM      30.16F
BOSCOBEL       MOSUNNY   79  55  43 VRB5      30.14F
6HR MIN TEMP:  56; 6HR MAX TEMP:  80;

PRAIRIE DU CHI SUNNY     77  56  48 SW6       30.14F
PLATTEVILLE    FAIR      74  56  53 S8        30.18F
$$

WIZ056-057-062-063-064-067-068-241900-
SOUTH CENTRAL WISCONSIN

CITY           SKY/WX    TMP DP  RH WIND       PRES   REMARKS
BARABOO/DELLS  SUNNY     74  50  42 SE3       30.15F
LONE ROCK      NOT AVBL
WATERTOWN      MOSUNNY   73  52  47 CALM      30.16F
MADISON        PTSUNNY   74  52  46 CALM      30.15F
6HR MIN TEMP:  58; 6HR MAX TEMP:  76;

MIDDLETON      FAIR      75  48  38 CALM      30.17F
MONROE         MOSUNNY   73  52  46 CALM      30.17F
JANESVILLE     SUNNY     75  46  35 E9        30.15F
$$

WIZ051-052-058>065-066-070>072-241900-
SOUTHEAST WISCONSIN

CITY           SKY/WX    TMP DP  RH WIND       PRES   REMARKS
MILWAUKEE      MOSUNNY   69  52  54 SE8       30.18F
6HR MIN TEMP:  59; 6HR MAX TEMP:  69;

WAUKESHA       MOSUNNY   70  45  40 SE5       30.18F
MILWAUKEE/TIMM NOT AVBL
RACINE         SUNNY     68  53  58 SE7       30.20S
6HR MIN TEMP:  58; 6HR MAX TEMP:  70;

BURLINGTON     SUNNY     69  48  47 NE7       30.18S
KENOSHA        SUNNY     70  50  49 E6        30.18F
6HR MIN TEMP:  57; 6HR MAX TEMP:  71;

FOND DU LAC    MOSUNNY   74  51  44 CALM      30.16F
6HR MIN TEMP:  56; 6HR MAX TEMP:  76;

SHEBOYGAN      SUNNY     70  46  42 MISG      30.17F
6HR MIN TEMP:  56; 6HR MAX TEMP:  71;

WEST BEND      SUNNY     70  48  46 E6        30.17S
JUNEAU         MOSUNNY   71  44  37 E3        30.19S
$$

LSZ147-162-241900-
LAKE SUPERIOR

STATION/POSITION TIME  TEMP    WIND        PRES    WAVE
                       AIR SEA DIR/SP/G            HT/PER
                 (UTC) (F)     (DEG/KT/KT) (MB)    (FT/S)
$$

LMZ867-665-643>646-241900-
LAKE MICHIGAN

STATION/POSITION TIME  TEMP    WIND        PRES    WAVE
                       AIR SEA DIR/SP/G            HT/PER
                 (UTC) (F)     (DEG/KT/KT) (MB)    (FT/S)
$$

TC  - TEMPERATURE IN CELSIUS
VSB - VISIBILITY IN STATUTE MILES
WCI - WIND CHILL INDEX
HX  - HEAT INDEX



USA.gov is the U.S. government's official web portal to all federal, state and local government web resources and services.